KK4URH Weather Reports


Display with metric or nautical units.
time (UTC)temp
F
wind
direction
speed
MPH
gust
MPH
rain 1hr
in
rain 24hr
in
rain mn
in
humidity
%
barometer
mb
20210921133227 72 74 5.0 10.0 0.00 0.00 0.00 69 1020.1
20210921131604 72 85 6.0 11.0 0.00 0.00 0.00 71 1020.1
20210921130116 71 74 5.0 12.0 0.00 0.00 0.00 72 1020.1
20210921123118 69 71 4.0 7.0 0.00 0.00 0.00 75 1020.2
20210921121548 69 46 4.0 9.0 0.00 0.00 0.00 75 1020.3
20210921120141 69 62 3.0 9.0 0.00 0.00 0.00 75 1020.3
20210921113115 68 69 4.0 8.0 0.00 0.00 0.00 75 1020.1
20210921111600 68 57 4.0 8.0 0.00 0.00 0.00 74 1020.1
20210921110135 68 92 5.0 11.0 0.00 0.00 0.00 74 1020.0
20210921103103 68 71 2.0 8.0 0.00 0.00 0.00 73 1020.2
20210921101549 68 72 3.0 8.0 0.00 0.00 0.00 72 1020.0
20210921100106 68 56 3.0 8.0 0.00 0.00 0.00 72 1019.8
20210921093050 68 55 4.0 10.0 0.00 0.00 0.00 72 1020.0
20210921091601 68 90 4.0 11.0 0.00 0.00 0.00 71 1020.1
20210921090032 68 97 4.0 10.0 0.00 0.00 0.00 71 1020.0
20210921083129 68 53 3.0 9.0 0.00 0.00 0.00 71 1019.9
20210921081602 68 83 3.0 9.0 0.00 0.00 0.00 72 1020.2
20210921080107 68 67 3.0 7.0 0.00 0.00 0.00 71 1020.2
20210921073026 68 83 2.0 6.0 0.00 0.00 0.00 71 1020.4
20210921071529 69 96 4.0 8.0 0.00 0.00 0.00 70 1020.4
20210921070105 69 55 4.0 9.0 0.00 0.00 0.00 70 1020.4
20210921063104 69 84 4.0 11.0 0.00 0.00 0.00 70 1020.6
20210921061543 69 96 6.0 11.0 0.00 0.00 0.00 70 1020.6
20210921060022 69 76 5.0 9.0 0.00 0.00 0.00 71 1020.9
20210921054513 69 94 4.0 12.0 0.00 0.00 0.00 69 1020.8
20210921053022 69 59 5.0 11.0 0.00 0.00 0.00 69 1020.8
20210921051536 70 96 4.0 10.0 0.00 0.00 0.00 70 1021.0
20210921050028 70 107 5.0 10.0 0.00 0.00 0.00 69 1021.3
20210921043003 71 61 6.0 13.0 0.00 0.00 0.00 67 1021.5
20210921041501 71 100 5.0 9.0 0.00 0.00 0.00 67 1021.5
20210921040125 72 90 4.0 10.0 0.00 0.00 0.00 65 1021.5
20210921034649 72 76 7.0 13.0 0.00 0.00 0.00 62 1021.7
20210921033132 72 94 6.0 12.0 0.00 0.00 0.00 62 1021.8
20210921031724 73 88 7.0 10.0 0.00 0.00 0.00 61 1021.9
20210921030249 73 86 3.0 11.0 0.00 0.00 0.00 61 1021.8
20210921024720 73 98 7.0 13.0 0.00 0.00 0.00 61 1021.8
20210921023214 73 62 5.0 11.0 0.00 0.00 0.00 60 1021.8
20210921021652 74 73 6.0 12.0 0.00 0.00 0.00 60 1021.7
20210921020220 74 100 5.0 9.0 0.00 0.00 0.00 57 1021.7
20210921014629 74 69 4.0 8.0 0.00 0.00 0.00 57 1021.6
20210921013154 75 71 5.0 9.0 0.00 0.00 0.00 56 1021.6
20210921011602 75 93 4.0 8.0 0.00 0.00 0.00 56 1021.6
20210921010127 75 69 3.0 8.0 0.00 0.00 0.00 58 1021.5
20210921004714 75 101 4.0 8.0 0.00 0.00 0.00 59 1021.1
20210921003210 76 76 3.0 7.0 0.00 0.00 0.00 59 1021.0
20210921001626 76 60 4.0 7.0 0.00 0.00 0.00 58 1020.7
20210921000124 77 89 3.0 8.0 0.00 0.00 0.00 59 1020.5
20210920234641 77 65 3.0 7.0 0.00 0.00 0.00 57 1020.3
20210920233108 78 75 4.0 8.0 0.00 0.00 0.00 57 1020.1
20210920231732 78 66 5.0 11.0 0.00 0.00 0.00 58 1020.0
20210920230058 79 79 7.0 13.0 0.00 0.00 0.00 57 1020.0
20210920224838 79 79 5.0 10.0 0.00 0.00 0.00 56 1020.1
20210920223118 79 94 5.0 9.0 0.00 0.00 0.00 55 1020.0
20210920221616 80 88 5.0 9.0 0.00 0.00 0.00 55 1019.9
20210920220049 80 113 3.0 11.0 0.00 0.00 0.00 54 1019.9
20210920213136 81 74 6.0 10.0 0.00 0.00 0.00 53 1019.7
20210920211739 81 94 5.0 11.0 0.00 0.00 0.00 53 1019.6
20210920210114 81 81 7.0 12.0 0.00 0.00 0.00 51 1019.7
20210920204633 82 113 4.0 11.0 0.00 0.00 0.00 50 1020.0
20210920203113 82 95 6.0 11.0 0.00 0.00 0.00 52 1019.9
20210920201639 82 123 7.0 11.0 0.00 0.00 0.00 51 1019.9
20210920200135 82 102 7.0 13.0 0.00 0.00 0.00 50 1020.0
20210920194610 82 72 5.0 10.0 0.00 0.00 0.00 50 1020.0
20210920193107 82 127 6.0 10.0 0.00 0.00 0.00 50 1020.1
20210920191603 81 53 4.0 12.0 0.00 0.00 0.00 52 1020.3
20210920190131 81 88 5.0 10.0 0.00 0.00 0.00 53 1020.1
20210920184639 81 66 5.0 11.0 0.00 0.00 0.00 52 1020.3
20210920183043 81 62 3.0 10.0 0.00 0.00 0.00 54 1020.4
20210920181602 82 99 5.0 8.0 0.00 0.00 0.00 55 1020.7
20210920180104 81 133 3.0 8.0 0.00 0.00 0.00 54 1021.0
20210920174545 81 82 3.0 11.0 0.00 0.00 0.00 56 1021.1
20210920173031 81 116 5.0 8.0 0.00 0.00 0.00 58 1021.2
20210920171556 81 65 7.0 13.0 0.00 0.00 0.00 56 1021.4
20210920170103 80 100 3.0 12.0 0.00 0.00 0.00 57 1021.5
20210920164536 80 126 2.0 9.0 0.00 0.00 0.00 60 1021.7
20210920163040 80 55 1.0 7.0 0.00 0.00 0.00 61 1021.7
20210920161551 79 94 3.0 9.0 0.00 0.00 0.00 63 1021.7
20210920160025 78 61 4.0 11.0 0.00 0.00 0.00 64 1021.8
20210920154524 77 78 5.0 13.0 0.00 0.00 0.00 64 1021.9
20210920153019 77 55 2.0 12.0 0.00 0.00 0.00 65 1021.8
20210920151558 76 101 5.0 10.0 0.00 0.00 0.00 66 1022.0
20210920150015 75 97 4.0 10.0 0.00 0.00 0.00 67 1022.0
20210920144523 74 61 5.0 10.0 0.00 0.00 0.00 68 1022.0
20210920143013 75 72 4.0 9.0 0.00 0.00 0.00 68 1022.1
20210920141512 75 88 5.0 10.0 0.00 0.00 0.00 68 1022.1
20210920140010 74 80 6.0 14.0 0.00 0.00 0.00 68 1021.9
20210920134504 73 79 7.0 11.0 0.00 0.00 0.00 69 1021.8